Location: Ergnies
(50.0854°N, 2.0375°E)
Time: 05:46:52
(UTC+00:00)

Cosmos 2084 - Pass Details

Date: 14 January 2026
Orbit: 535 x 565 km, 62.8° (Epoch: 10 February)

Event Time Altitude Azimuth Distance (km) Brightness Sun altitude
Exits shadow 06:23:01 17° 262° (W) 1,461 4.9 -12.8°
Maximum altitude 06:25:50 39° 324° (NW) 851 3.9 -12.3°
Drops below altitude 10° 06:29:45 10° 35° (NE) 1,842 6.2 -11.7°
Sets 06:32:04 0° 43° (NE) 2,733 7.2 -11.4°
